Stations météo

réclame
Mon MeteoGroup
Benavente, Espagne (8056): Température de l'air & dewpoint: 18.02.2018 22:00:00 - 24.02.2018 22:00:00 (CET)Benavente, Espagne (8056): Vitesse du vent & gusts: 18.02.2018 22:00:00 - 24.02.2018 22:00:00 (CET)Benavente, Espagne (8056): Direction du vent: 18.02.2018 22:00:00 - 24.02.2018 22:00:00 (CET)Benavente, Espagne (8056): reduced air pressure: 18.02.2018 22:00:00 - 24.02.2018 22:00:00 (CET)Benavente, Espagne (8056): visibility: 18.02.2018 22:00:00 - 24.02.2018 22:00:00 (CET)Benavente, Espagne (8056): Ensoleillement: 18.02.2018 22:00:00 - 24.02.2018 22:00:00 (CET)Benavente, Espagne (8056): Quantités de précipitations: 18.02.2018 22:00:00 - 24.02.2018 22:00:00 (CET)
Date & Time tt [°C] td [°C] ff [km/h] ff [knt] fx [km/h] fx [knt] dd ppp [hPa] vv [km] sd [min] rr [mm]
24.02.2018 22:00:00 0,1 -9,4 2 1 6 3 N 1011,5 20 0 0,0
24.02.2018 21:00:00 1,0 -9,0 4 2 6 3 N 1010,6 20 0 0,0
24.02.2018 20:00:00 3,6 -9,4 0 0 6 3 N 1009,1 20 0 0,0
24.02.2018 19:00:00 8,4 -10,3 3 2 8 5 SE 1006,8 20 33 -
24.02.2018 18:00:00 10,9 -11,7 5 3 16 9 S 1005,5 20 60 0,0
24.02.2018 17:00:00 11,0 -11,7 3 2 13 7 SSE 1005,5 20 57 0,0
24.02.2018 16:00:00 10,8 -11,2 6 3 18 10 S 1005,1 20 60 0,0
24.02.2018 15:00:00 10,2 -10,8 4 2 18 10 SSW 1005,5 20 60 0,0
24.02.2018 14:00:00 9,1 -9,0 5 3 19 11 S 1006,5 20 60 0,0
24.02.2018 13:00:00 7,8 -8,6 5 3 16 9 SE 1007,3 20 60 -
24.02.2018 12:00:00 5,5 -8,2 3 2 7 4 S 1007,9 20 60 0,0
24.02.2018 11:00:00 2,8 -7,5 3 2 8 5 NNE 1008,8 20 60 0,0
24.02.2018 10:00:00 -1,1 -6,7 3 1 7 4 N 1010,0 20 60 0,0
24.02.2018 09:00:00 -5,8 -9,0 2 1 6 3 NE 1011,4 20 6 0,0
24.02.2018 08:00:00 -6,6 -9,9 0 0 7 4 N 1011,3 20 0 0,0
24.02.2018 07:00:00 -5,6 -9,4 3 1 8 4 W 1010,9 20 0 -
24.02.2018 06:00:00 -6,4 -9,4 3 1 4 2 WNW 1010,9 20 0 0,0
24.02.2018 05:00:00 -5,4 -9,4 2 1 11 6 ESE 1010,6 20 0 0,0
24.02.2018 04:00:00 -3,4 -9,0 6 4 12 7 NNW 1009,8 20 0 0,0
24.02.2018 03:00:00 -3,1 -9,0 6 4 12 7 NNW 1010,0 20 0 0,0
24.02.2018 02:00:00 -2,9 -8,6 5 3 12 6 NW 1010,1 20 0 0,0
24.02.2018 01:00:00 -2,8 -9,4 4 2 10 5 NNW 1009,9 20 0 -
24.02.2018 00:00:00 -3,3 -9,0 1 1 11 6 N 1010,0 20 0 0,0
23.02.2018 23:00:00 -2,5 -8,6 2 1 5 3 E 1009,5 18 0 0,0
23.02.2018 22:00:00 -1,7 -9,0 0 0 3 2 N 1009,1 20 0 0,0
23.02.2018 21:00:00 -0,4 -8,2 1 1 3 1 WSW 1008,7 20 0 0,0
23.02.2018 20:00:00 1,6 -8,2 2 1 4 2 SSW 1008,2 20 0 0,0
23.02.2018 19:00:00 5,7 -9,9 1 1 7 4 NNE 1006,8 20 34 -
23.02.2018 18:00:00 7,9 -10,8 3 2 12 7 ENE 1006,0 20 60 0,0
23.02.2018 17:00:00 8,7 -9,9 4 2 10 6 NW 1006,1 20 59 0,0
23.02.2018 16:00:00 8,1 -9,0 4 2 14 7 W 1006,7 20 60 0,0
23.02.2018 15:00:00 7,3 -8,2 5 3 14 8 NNW 1007,4 20 60 0,0
23.02.2018 14:00:00 6,3 -8,2 4 2 14 7 SW 1008,5 20 60 0,0
23.02.2018 13:00:00 4,8 -7,5 4 2 14 8 NE 1009,9 20 60 -
23.02.2018 12:00:00 3,0 -6,7 5 3 18 10 NNE 1011,1 20 60 0,0
23.02.2018 11:00:00 1,0 -6,7 5 3 13 7 E 1012,1 17 60 0,0
23.02.2018 10:00:00 -1,2 -6,4 1 1 13 7 SSE 1013,1 15 60 0,0
23.02.2018 09:00:00 -5,2 -7,5 2 1 4 2 NNE 1014,3 10 4 0,0
23.02.2018 08:00:00 -6,5 -9,0 3 1 13 7 N 1014,7 12 0 0,0
23.02.2018 07:00:00 -5,7 -9,0 1 1 11 6 NNE 1014,4 14 0 -
23.02.2018 06:00:00 -4,2 -7,8 2 1 5 3 WSW 1013,9 20 0 0,0
23.02.2018 05:00:00 -4,6 -7,8 4 2 6 3 NNW 1014,1 16 0 0,0
23.02.2018 04:00:00 -3,7 -7,1 3 2 11 6 NNW 1014,4 15 0 0,0
23.02.2018 03:00:00 -3,0 -7,1 3 1 8 4 N 1014,4 15 0 0,0
23.02.2018 02:00:00 -1,9 -6,0 4 2 16 8 NE 1014,1 14 0 0,0
23.02.2018 01:00:00 -1,0 -6,0 4 2 18 10 NE 1014,0 18 0 -
23.02.2018 00:00:00 -0,1 -6,0 8 4 16 9 E 1013,7 20 0 0,0
22.02.2018 23:00:00 0,4 -6,4 3 2 9 5 NE 1013,6 20 0 0,0
22.02.2018 22:00:00 1,4 -6,7 4 2 19 10 E 1013,1 20 0 0,0
22.02.2018 21:00:00 2,7 -7,1 9 5 21 11 ENE 1012,5 20 0 0,0
22.02.2018 20:00:00 4,2 -7,1 7 4 19 10 E 1011,8 20 0 0,0
22.02.2018 19:00:00 6,1 -6,7 9 5 29 16 ESE 1011,0 20 31 -
22.02.2018 18:00:00 8,3 -6,4 13 7 29 16 ESE 1010,0 20 60 0,0
22.02.2018 17:00:00 9,0 -7,8 6 3 20 11 E 1009,8 20 58 0,0
22.02.2018 16:00:00 9,0 -6,4 6 3 16 9 ESE 1010,2 20 60 0,0
22.02.2018 15:00:00 8,7 -6,7 5 3 14 7 SSE 1010,9 20 60 0,0
22.02.2018 14:00:00 7,5 -5,7 3 1 13 7 SSE 1011,6 20 60 0,0
22.02.2018 13:00:00 6,1 -6,0 4 2 13 7 E 1012,9 20 60 -
22.02.2018 12:00:00 4,8 -4,2 4 2 11 6 SE 1013,8 20 60 0,0
22.02.2018 11:00:00 2,4 -4,2 5 3 11 6 NW 1015,0 20 60 0,0
22.02.2018 10:00:00 -0,1 -3,9 5 3 15 8 NNE 1016,0 20 60 0,0
22.02.2018 09:00:00 -3,7 -5,7 4 2 6 3 NNE 1017,4 20 2 0,0
22.02.2018 08:00:00 -3,5 -6,0 3 1 6 3 NNE 1017,5 20 0 0,0
22.02.2018 07:00:00 -3,1 -5,7 3 2 16 9 N 1017,3 17 0 -
22.02.2018 06:00:00 -2,2 -5,1 6 4 13 7 WNW 1017,0 20 0 0,0
22.02.2018 05:00:00 -2,3 -5,1 6 3 11 6 WNW 1016,9 20 0 0,0
22.02.2018 04:00:00 -2,0 -5,4 2 1 13 7 WNW 1017,1 20 0 0,0
22.02.2018 03:00:00 -1,6 -5,1 5 3 10 6 NE 1017,3 20 0 0,0
22.02.2018 02:00:00 -1,0 -4,8 2 1 21 12 N 1017,7 20 0 0,0
22.02.2018 01:00:00 0,0 -4,2 10 5 21 11 ENE 1017,3 20 0 -
22.02.2018 00:00:00 0,5 -3,9 9 5 21 11 NNE 1017,3 20 0 0,0
21.02.2018 23:00:00 1,5 -3,6 8 5 22 12 ENE 1016,9 20 0 0,0
21.02.2018 22:00:00 2,1 -2,5 5 3 18 10 ENE 1016,6 20 0 0,0
21.02.2018 21:00:00 3,2 -2,2 9 5 27 15 ENE 1015,9 20 0 0,0
21.02.2018 20:00:00 4,9 -1,4 8 5 33 18 E 1015,4 20 0 0,0
21.02.2018 19:00:00 7,5 -1,4 16 8 38 21 E 1013,8 20 17 -
21.02.2018 18:00:00 9,7 -1,7 11 6 27 15 E 1012,3 20 36 0,0
21.02.2018 17:00:00 11,9 -4,2 14 7 31 17 NE 1011,2 20 53 0,0
21.02.2018 16:00:00 12,0 -4,2 14 8 33 18 NE 1011,2 20 59 0,0
21.02.2018 15:00:00 11,2 -5,1 13 7 32 18 NE 1012,2 20 60 0,0
21.02.2018 14:00:00 10,7 -5,1 12 6 29 16 NNE 1013,4 20 59 0,0
21.02.2018 13:00:00 10,1 -5,4 12 6 27 14 NNE 1014,7 20 60 -
21.02.2018 12:00:00 9,0 -4,2 11 6 28 15 N 1015,8 20 60 0,0
21.02.2018 11:00:00 7,1 -2,7 11 6 26 14 ENE 1016,6 20 60 0,0
21.02.2018 10:00:00 5,2 -2,2 5 3 13 7 ENE 1017,4 20 60 0,0
21.02.2018 09:00:00 1,0 -2,7 4 2 10 5 N 1018,6 20 0 0,0
21.02.2018 08:00:00 0,7 -3,0 8 4 14 8 N 1018,0 20 0 0,0
21.02.2018 07:00:00 2,7 -2,0 6 3 31 17 NE 1017,4 20 0 -
21.02.2018 06:00:00 2,0 -1,4 9 5 22 12 N 1017,8 20 0 0,0
21.02.2018 05:00:00 1,6 -2,0 5 3 15 8 NNE 1018,0 20 0 0,0
21.02.2018 04:00:00 2,0 -1,7 4 2 12 7 N 1018,8 20 0 0,0
21.02.2018 03:00:00 1,6 -2,0 4 2 13 7 N 1019,9 20 0 0,0
21.02.2018 02:00:00 1,6 -1,2 3 2 7 4 W 1020,9 20 0 0,0
21.02.2018 01:00:00 2,0 -1,0 2 1 6 3 ENE 1021,7 20 0 -
21.02.2018 00:00:00 3,5 -0,5 2 1 21 12 SW 1021,5 20 0 0,0
20.02.2018 23:00:00 4,6 0,0 5 3 19 10 ENE 1022,0 20 0 0,0
20.02.2018 22:00:00 6,0 0,4 9 5 21 11 NNW 1021,5 20 0 0,0
20.02.2018 21:00:00 7,2 0,6 13 7 23 12 N 1021,1 20 0 0,0
20.02.2018 20:00:00 8,2 0,4 11 6 28 15 N 1020,9 20 0 0,0
20.02.2018 19:00:00 10,5 0,0 18 10 41 22 N 1019,7 20 29 -
20.02.2018 18:00:00 12,5 -0,7 21 11 41 22 N 1019,0 20 60 0,0
20.02.2018 17:00:00 14,0 0,0 19 10 37 20 N 1018,5 20 58 0,0
20.02.2018 16:00:00 14,1 -0,7 16 9 39 21 NNE 1018,7 20 60 0,0
20.02.2018 15:00:00 13,8 -1,4 22 12 40 21 NNE 1019,3 20 60 0,0
20.02.2018 14:00:00 13,2 -0,5 14 8 33 18 N 1019,8 20 58 0,0
20.02.2018 13:00:00 12,3 0,6 14 7 32 17 N 1021,0 20 60 -
20.02.2018 12:00:00 10,5 0,2 14 8 27 15 N 1022,0 20 59 0,0
20.02.2018 11:00:00 9,7 0,2 14 8 27 15 N 1022,0 20 60 0,0
20.02.2018 10:00:00 7,7 1,7 10 5 18 10 N 1022,4 20 25 0,0
20.02.2018 09:00:00 4,0 1,3 3 2 14 8 ENE 1023,8 20 0 0,0
20.02.2018 08:00:00 3,1 0,6 5 3 12 6 NW 1023,6 20 0 0,0
20.02.2018 07:00:00 3,6 0,4 2 1 22 12 SE 1023,6 20 0 -
20.02.2018 06:00:00 5,4 1,5 13 7 25 13 NNW 1022,6 20 0 0,0
20.02.2018 05:00:00 4,5 1,7 3 2 9 5 SSW 1022,7 20 0 0,0
20.02.2018 04:00:00 6,2 2,5 4 2 12 7 N 1022,2 20 0 0,0
20.02.2018 03:00:00 6,2 2,3 8 4 14 8 N 1022,3 20 0 0,0
20.02.2018 02:00:00 6,4 2,9 2 1 13 7 ENE 1022,4 20 0 0,0
20.02.2018 01:00:00 6,5 2,7 3 2 22 12 NE 1022,4 20 0 -
20.02.2018 00:00:00 6,6 2,9 11 6 21 11 NW 1022,0 20 0 0,0
19.02.2018 23:00:00 7,0 2,7 12 7 26 14 NNW 1022,0 20 0 0,0
19.02.2018 22:00:00 8,1 3,0 11 6 23 12 NNW 1021,8 20 0 0,0
19.02.2018 21:00:00 8,5 2,7 13 7 24 13 N 1021,3 20 0 0,0
19.02.2018 20:00:00 9,3 2,7 11 6 28 15 NNW 1020,9 20 0 0,0
19.02.2018 19:00:00 10,8 2,7 9 5 25 14 N 1020,5 20 0 -
19.02.2018 18:00:00 11,8 1,7 14 8 30 16 N 1020,0 20 0 0,0
19.02.2018 17:00:00 13,1 1,7 14 8 30 16 N 1019,4 20 6 0,0
19.02.2018 16:00:00 13,8 1,5 15 8 28 15 N 1019,2 20 58 0,0
19.02.2018 15:00:00 13,1 1,5 15 8 28 15 N 1019,9 20 53 0,0
19.02.2018 14:00:00 12,1 1,7 12 7 23 12 N 1020,5 20 0 0,0
19.02.2018 13:00:00 11,6 1,9 9 5 19 10 N 1021,3 20 0 -
19.02.2018 12:00:00 - - - - - - - - - - -
19.02.2018 11:00:00 8,6 2,1 2 1 9 5 NW 1022,2 20 0 0,0
19.02.2018 10:00:00 6,6 2,5 2 1 4 2 NE 1022,9 20 0 0,0
19.02.2018 09:00:00 5,4 2,1 1 1 4 2 WSW 1023,3 20 0 0,0
19.02.2018 08:00:00 5,2 1,9 2 1 4 2 S 1023,0 20 0 0,0
19.02.2018 07:00:00 5,4 1,9 2 1 8 5 NE 1022,8 20 0 -
19.02.2018 06:00:00 5,6 2,1 3 2 8 4 NNE 1022,5 20 0 0,0
19.02.2018 05:00:00 5,2 1,5 1 1 4 2 NNE 1022,5 20 0 0,0
19.02.2018 04:00:00 4,7 1,1 2 1 6 4 WNW 1023,2 20 0 0,0
19.02.2018 03:00:00 6,4 1,3 3 2 11 6 NE 1022,9 20 0 0,0
19.02.2018 02:00:00 6,6 1,9 5 3 9 5 NNW 1023,4 20 0 0,0
19.02.2018 01:00:00 6,7 2,1 5 3 13 7 N 1023,8 20 0 -
19.02.2018 00:00:00 6,7 2,3 4 2 9 5 N 1024,0 20 0 0,0
18.02.2018 23:00:00 7,6 2,3 5 3 9 5 N 1024,2 20 0 0,0
18.02.2018 22:00:00 8,0 3,0 4 2 27 14 N 1024,3 20 0 0,0

tt = Température de l'air
td = dewpoint
ff = Vitesse du vent
fx = gusts
dd = Direction du vent
ppp = reduced air pressure
vv = visibility
sd = Ensoleillement
rr = Quantités de précipitations

stations d'obs. à proximité